Погода в Нюрбачане

Россия / Республика Саха (Якутия)     63°20′08″N   118°06′35″E
темп.,
°C
ветер,
м/с
пор.,
м/с
влажн.,
%
обл.,
%
осадки,
мм/ч
давл.,
гПа
погр.,
м
5 марта, пт
пт500:00−31з38910 0.0 1032244
03:00−34зюз37920 0.0 1033145
06:00−35зюз369338 0.0 1034109
09:00−35юз379528 0.0 1034158
12:00−27зюз369220 0.0 1032380
15:00−23юз369130 0.0 1031473
18:00−24ююз229684 0.0 102935
21:00−27ююз239766 0.0 102925
6 марта, сб
сб600:00−29ю229720 0.0 102819
03:00−29ююв229741 0.0 102621
06:00−26ююв259593 0.0 1024136
09:00−24ююв269297 0.0 1022251
12:00−20ююв2596100 0.2 1020351
15:00−17ююв2493100 0.4 1017464
18:00−16вюв1296100 0.1 101659
21:00−17вюв129799 0.2 101543
7 марта, вс
вс700:00−17вюв1298100 0.2 101422
03:00−17вюв1198100 0.4 101420
06:00−17ю019896 0.1 101220
09:00−18ю119997 0.1 101120
12:00−13ююв139395 0.0 1009268
15:00−10ююв249398 0.3 1006432
18:00−9юв2496100 0.5 1004282
21:00−9юв1297100 1.1 100254
8 марта, пн
пн800:00−10вюв1197100 0.4 100021
03:00−11в1197100 0.6 99921
06:00−11ссв2297100 0.3 99843
09:00−12с239699 0.6 999125
12:00−10ссз239394 0.1 1000327
15:00−9сз239197 0.3 1002465
18:00−10зсз129599 0.1 100568
21:00−12з119597 0.2 100820
9 марта, вт
вт900:00−12зюз379598 0.1 1009235
03:00−16зюз379571 0.1 1010138
06:00−17юз379732 0.0 1011144
09:00−12юз399466 0.3 1011500
12:00−10юз4891100 0.1 1009608
15:00−10ююз4891100 0.2 1005610
18:00−10ю3991100 0.0 1002637
21:00−9ю41093100 0.4 999750